Cape Byron Observation History
Time Wind Speed Temp Pressure Rel. Hum Rain
21/10:00pm N 18-27 kts 23.9°c 1008.2 hPa 75% 0.8mm
21/09:41pm NNE 16-26 kts 23.8°c 1008.0 hPa 90% 0.8mm
21/09:30pm N 12-20 kts 24.1°c 1008.0 hPa 86% 0.8mm
21/09:00pm NNW 10-17 kts 23.2°c 1007.8 hPa 91% 0.8mm
21/08:30pm NW 11-20 kts 24.5°c 1008.0 hPa 85% 0.8mm
21/08:00pm NNW 10-19 kts 24.3°c 1007.7 hPa 78% 0.8mm
21/07:40pm N 15-30 kts 24.6°c 1006.9 hPa 89% 0.8mm
21/07:30pm N 22-34 kts 25.0°c 1006.9 hPa 88% 0.8mm
21/07:03pm N 20-31 kts 24.6°c 1005.8 hPa 78% 0.8mm
21/07:00pm N 18-27 kts 24.4°c 1005.9 hPa 77% 0.8mm
21/06:44pm N 15-28 kts 24.0°c 1006.6 hPa 98% 0.6mm
21/06:30pm NW 11-19 kts 24.8°c 1007.7 hPa 98% 0.4mm
21/06:00pm N 14-21 kts 24.2°c 1006.6 hPa 94% 0.0mm
21/05:30pm N 19-25 kts 25.5°c 1005.7 hPa 90% 0.0mm
21/05:00pm NNE 16-24 kts 26.8°c 1006.1 hPa 85% 0.0mm
21/04:30pm NNE 17-25 kts 26.4°c 1006.1 hPa 87% 0.0mm
21/04:00pm N 17-27 kts 27.4°c 1006.4 hPa 81% 0.0mm
21/03:52pm N 17-27 kts 27.4°c 1006.4 hPa 81% 0.0mm
21/03:30pm N 18-24 kts 27.2°c 1006.7 hPa 82% 0.0mm
21/03:00pm N 16-22 kts 27.3°c 1007.1 hPa 81% 0.0mm
21/02:30pm N 16-24 kts 27.6°c 1007.5 hPa 80% 0.0mm
21/02:00pm NNE 15-21 kts 27.2°c 1007.8 hPa 81% 0.0mm
21/01:30pm NNE 15-20 kts 27.3°c 1008.3 hPa 81% 0.0mm
21/01:00pm NNE 17-24 kts 27.2°c 1008.5 hPa 79% 0.0mm
21/12:30pm NNE 15-21 kts 27.1°c 1008.7 hPa 80% 0.0mm
21/12:00pm N 14-20 kts 26.9°c 1008.9 hPa 79% 0.0mm
21/11:30am NNE 14-20 kts 26.6°c 1009.2 hPa 83% 0.0mm
21/11:00am NNE 13-21 kts 26.4°c 1009.2 hPa 83% 0.0mm
21/10:30am NNE 12-19 kts 26.3°c 1009.2 hPa 83% 0.0mm
21/10:00am N 13-19 kts 25.8°c 1009.3 hPa 87% 0.0mm
21/09:30am N 13-18 kts 25.1°c 1009.1 hPa 90% 0.0mm
21/09:00am N 14-20 kts 24.6°c 1009.1 hPa 94% 5.2mm
21/08:30am N 13-18 kts 24.0°c 1008.9 hPa 97% 5.2mm
21/08:00am N 12-17 kts 23.5°c 1008.8 hPa 99% 5.2mm
21/07:30am NNE 15-21 kts 24.0°c 1008.3 hPa 99% 5.2mm
21/07:00am N 17-22 kts 23.9°c 1008.1 hPa 100% 5.2mm
21/06:30am NNW 10-15 kts 23.2°c 1007.9 hPa 100% 5.2mm
21/06:00am N 16-21 kts 23.4°c 1007.2 hPa 100% 5.2mm
21/05:30am N 16-22 kts 23.6°c 1006.9 hPa 99% 5.2mm
21/05:26am N 17-27 kts 23.6°c 1006.7 hPa 99% 5.2mm
21/05:00am N 19-27 kts 24.0°c 1006.4 hPa 99% 5.2mm
21/04:30am N 18-24 kts 24.1°c 1006.5 hPa 99% 5.2mm
21/04:00am N 18-23 kts 23.9°c 1006.4 hPa 99% 5.2mm
21/03:30am N 17-24 kts 23.5°c 1006.5 hPa 98% 5.2mm
21/03:00am N 14-20 kts 23.5°c 1006.6 hPa 98% 5.2mm
21/02:30am N 15-22 kts 23.2°c 1006.7 hPa 98% 5.2mm
21/02:00am NNW 13-20 kts 23.1°c 1007.1 hPa 97% 5.2mm
21/01:30am N 14-21 kts 23.0°c 1007.4 hPa 94% 5.2mm
21/01:00am NNW 14-21 kts 23.0°c 1007.8 hPa 90% 5.2mm
21/12:30am N 14-19 kts 22.9°c 1008.1 hPa 89% 5.2mm
21/12:00am NNW 14-21 kts 23.3°c 1008.3 hPa 85% 5.2mm
Time Wind Speed Temp Pressure Rel. Hum Rain
20/11:30pm NNW 13-19 kts 23.1°c 1008.1 hPa 87% 5.2mm
20/11:00pm NNW 12-17 kts 22.5°c 1008.1 hPa 89% 5.2mm
20/10:30pm NNW 14-21 kts 22.9°c 1008.3 hPa 84% 5.2mm
20/10:00pm N 15-21 kts 22.7°c 1008.0 hPa 95% 5.2mm
20/09:30pm NNW 12-17 kts 22.8°c 1007.9 hPa 100% 5.2mm
20/09:00pm NNW 12-17 kts 23.1°c 1007.8 hPa 100% 5.2mm
20/08:30pm N 15-21 kts 23.5°c 1007.5 hPa 100% 5.2mm
20/08:00pm N 16-23 kts 23.9°c 1007.1 hPa 100% 5.2mm
20/07:30pm NNE 15-21 kts 24.6°c 1006.5 hPa 95% 5.2mm
20/07:00pm NNE 14-20 kts 24.6°c 1006.3 hPa 95% 5.2mm
20/06:30pm NNE 11-19 kts 23.3°c 1005.7 hPa 91% 5.0mm
20/06:00pm NNW 11-19 kts 23.7°c 1006.8 hPa 98% 2.8mm
20/05:30pm NNW 11-16 kts 24.2°c 1006.4 hPa 94% 0.0mm
20/05:00pm NNW 11-16 kts 24.8°c 1005.2 hPa 91% 0.0mm
20/04:30pm N 14-19 kts 25.1°c 1005.1 hPa 89% 0.0mm
20/04:00pm NNE 16-25 kts 26.2°c 1004.7 hPa 85% 0.0mm
20/03:34pm NNE 18-29 kts 26.7°c 1004.9 hPa 83% 0.0mm
20/03:30pm NNE 17-26 kts 26.4°c 1004.9 hPa 84% 0.0mm
20/03:00pm NNE 19-27 kts 26.9°c 1005.2 hPa 83% 0.0mm
20/02:42pm NNE 19-29 kts 26.8°c 1005.5 hPa 84% 0.0mm
20/02:30pm NNE 22-30 kts 26.5°c 1005.4 hPa 85% 0.0mm
20/02:00pm NNE 22-33 kts 26.3°c 1005.7 hPa 87% 0.0mm
20/01:33pm NNE 20-30 kts 26.7°c 1005.9 hPa 84% 0.0mm
20/01:30pm NNE 20-28 kts 26.7°c 1006.0 hPa 84% 0.0mm
20/01:00pm NNE 19-28 kts 26.5°c 1006.3 hPa 85% 0.0mm
20/12:31pm NNE 19-29 kts 26.5°c 1006.6 hPa 85% 0.0mm
20/12:30pm NNE 20-29 kts 26.5°c 1006.6 hPa 85% 0.0mm
20/12:06pm NNE 17-27 kts 26.5°c 1006.9 hPa 84% 0.0mm
20/12:00pm NNE 17-23 kts 26.5°c 1006.8 hPa 84% 0.0mm
20/11:30am NNE 17-26 kts 26.4°c 1007.1 hPa 84% 0.0mm
20/11:00am NNE 17-23 kts 26.0°c 1007.2 hPa 85% 0.0mm
20/10:30am NNE 17-23 kts 25.6°c 1007.6 hPa 89% 0.0mm
20/10:00am N 18-25 kts 25.1°c 1007.4 hPa 90% 0.0mm
20/09:36am N 17-27 kts 24.9°c 1007.2 hPa 90% 0.0mm
20/09:30am N 18-26 kts 24.8°c 1007.2 hPa 91% 0.0mm
20/09:00am N 18-26 kts 24.7°c 1007.2 hPa 94% 2.0mm
20/08:30am N 19-26 kts 24.6°c 1007.2 hPa 97% 2.0mm
20/08:00am NNE 15-23 kts 24.4°c 1007.4 hPa 99% 2.0mm
20/07:30am N 16-21 kts 24.0°c 1007.1 hPa 100% 2.0mm
20/07:00am N 16-23 kts 23.8°c 1006.8 hPa 100% 2.0mm
20/06:30am N 16-21 kts 23.8°c 1006.5 hPa 99% 2.0mm
20/06:00am N 13-18 kts 23.4°c 1006.4 hPa 98% 2.0mm
20/05:30am N 13-18 kts 23.4°c 1006.2 hPa 95% 2.0mm
20/05:00am NNE 15-21 kts 23.7°c 1006.2 hPa 96% 2.0mm
20/04:30am NNE 14-19 kts 23.5°c 1006.2 hPa 95% 2.0mm
20/04:00am N 17-24 kts 23.1°c 1006.0 hPa 94% 2.0mm
20/03:30am NNE 16-25 kts 23.9°c 1006.0 hPa 95% 2.0mm
20/03:00am NNE 15-21 kts 23.6°c 1006.0 hPa 97% 2.0mm
20/02:30am NNE 14-19 kts 23.5°c 1006.0 hPa 93% 2.0mm
20/02:00am NE 14-19 kts 22.1°c 1006.1 hPa 97% 2.0mm
20/01:47am NE 18-29 kts 22.9°c 1006.1 hPa 99% 2.0mm
20/01:43am NNE 19-29 kts 22.9°c 1005.9 hPa 99% 2.0mm
20/01:30am N 16-26 kts 23.0°c 1005.9 hPa 99% 2.0mm
20/01:00am N 16-25 kts 23.4°c 1006.1 hPa 96% 0.2mm
20/12:57am NNE 15-25 kts 23.5°c 1006.3 hPa 95% 0.2mm
20/12:30am NNE 17-24 kts 22.8°c 1006.6 hPa 92% 0.2mm
20/12:00am NNE 14-20 kts 23.5°c 1006.8 hPa 97% 0.2mm
Time Wind Speed Temp Pressure Rel. Hum Rain
19/11:30pm NNW 8-11 kts 23.4°c 1006.8 hPa 97% 0.2mm
19/11:00pm NW 6-9 kts 23.5°c 1007.0 hPa 95% 0.2mm
19/10:30pm NNW 9-13 kts 23.4°c 1006.9 hPa 93% 0.2mm
19/10:00pm NNE 15-22 kts 25.1°c 1006.7 hPa 86% 0.2mm
19/09:30pm NNE 19-25 kts 25.3°c 1006.4 hPa 83% 0.2mm
19/09:00pm NNE 19-25 kts 25.3°c 1006.2 hPa 84% 0.2mm
19/08:30pm NNE 13-19 kts 25.0°c 1005.9 hPa 88% 0.2mm
19/08:00pm N 10-19 kts 24.7°c 1005.7 hPa 87% 0.2mm
19/07:30pm N 14-19 kts 25.1°c 1005.4 hPa 85% 0.2mm
19/07:00pm N 13-19 kts 25.2°c 1005.0 hPa 85% 0.2mm
19/06:30pm NNE 13-20 kts 25.7°c 1004.7 hPa 79% 0.2mm
19/06:00pm NNE 13-18 kts 26.3°c 1004.6 hPa 79% 0.2mm
19/05:30pm NNE 14-23 kts 26.0°c 1004.4 hPa 79% 0.2mm
19/05:00pm NNE 12-20 kts 25.7°c 1004.1 hPa 78% 0.2mm
19/04:30pm NNE 13-17 kts 26.3°c 1004.5 hPa 76% 0.2mm
19/04:00pm NNE 11-17 kts 27.0°c 1004.7 hPa 74% 0.2mm
19/03:30pm NNE 10-14 kts 27.2°c 1004.7 hPa 77% 0.2mm
19/03:00pm NNE 8-11 kts 26.3°c 1005.0 hPa 78% 0.2mm
19/02:30pm NE 10-14 kts 27.2°c 1005.3 hPa 75% 0.2mm
19/02:00pm ENE 10-15 kts 27.7°c 1005.5 hPa 69% 0.2mm
19/01:30pm E 8-10 kts 29.3°c 1005.7 hPa 74% 0.2mm
19/01:00pm E 8-9 kts 28.8°c 1005.8 hPa 76% 0.2mm
19/12:30pm ESE 10-11 kts 27.5°c 1005.9 hPa 78% 0.0mm
19/12:00pm SE 8-10 kts 26.0°c 1006.5 hPa 82% 0.0mm
19/11:30am SE 9-11 kts 25.9°c 1006.4 hPa 82% 0.0mm
19/11:00am ESE 9-11 kts 25.7°c 1006.6 hPa 86% 0.0mm
19/10:30am SE 8-10 kts 25.0°c 1006.7 hPa 89% 0.0mm
19/10:00am S 5-7 kts 24.3°c 1006.4 hPa 92% 0.0mm
19/09:30am SSW 6-8 kts 23.5°c 1006.4 hPa 98% 0.0mm
19/09:00am SW 6-8 kts 22.4°c 1006.2 hPa 99% 77.0mm
19/08:30am WSW 6-7 kts 22.3°c 1006.4 hPa 99% 77.0mm
19/08:00am SSW 8-9 kts 21.7°c 1006.2 hPa 99% 77.0mm
19/07:30am WSW 5-6 kts 21.9°c 1006.0 hPa 98% 77.0mm
19/07:00am WSW 6-8 kts 21.7°c 1005.5 hPa 98% 77.0mm
19/06:30am WSW 8-10 kts 21.3°c 1005.1 hPa 99% 77.0mm
19/06:00am WSW 10-13 kts 21.5°c 1004.8 hPa 99% 77.0mm
19/05:30am W 9-11 kts 21.5°c 1004.3 hPa 99% 77.0mm
19/05:00am WNW 7-10 kts 21.6°c 1004.1 hPa 100% 77.0mm
19/04:30am NW 5-7 kts 21.6°c 1004.1 hPa 100% 77.0mm
19/04:00am NW 5-6 kts 21.6°c 1003.9 hPa 99% 77.0mm
19/03:30am NW 5-7 kts 21.8°c 1004.0 hPa 100% 77.0mm
19/03:00am N 7-9 kts 22.1°c 1004.2 hPa 100% 77.0mm
19/02:30am NNW 5-7 kts 22.2°c 1004.6 hPa 99% 76.8mm
19/02:00am NNW 6-13 kts 22.4°c 1005.0 hPa 100% 76.8mm
19/01:30am NNE 6-12 kts 22.5°c 1005.3 hPa 100% 68.8mm
19/01:00am NW 6-11 kts 22.5°c 1005.0 hPa 100% 68.6mm
19/12:30am NE 14-23 kts 22.8°c 1005.1 hPa 100% 68.6mm
19/12:00am ENE 15-26 kts 22.5°c 1004.8 hPa 99% 63.4mm